Location: Pl�tzky
(52.0521°N, 11.8020°E)
Time: 18:56:40
(UTC+00:00)

NOAA 12 - Pass Details

Date: 22 November 2019
Orbit: 795 x 816 km, 98.5° (Epoch: 12 December)

Event Time Altitude Azimuth Distance (km) Brightness Sun altitude
Rises 16:26:11 0° 153° (SSE) 3,332 7.2 -10.9°
Reaches altitude 10° 16:28:32 10° 150° (SSE) 2,404 6.5 -11.3°
Maximum altitude 16:33:48 65° 70° (ENE) 895 4.1 -12.0°
Drops below altitude 10° 16:39:05 10° 349° (N) 2,413 6.5 -12.8°
Sets 16:41:27 0° 347° (NNW) 3,346 7.3 -13.2°
